Location: Trout Lake
(45.9980°N, 121.5270°W)
Time: 20:25:12
(UTC-08:00)

CBERS 1 LM4 rocket - Pass Details

Date: 06 December 2023
Orbit: 698 x 838 km, 98.8° (Epoch: 22 February)

Event Time Altitude Azimuth Distance (km) Brightness Sun altitude
Rises 17:59:46 0° 159° (SSE) 3,117 7.6 -16.4°
Reaches altitude 10° 18:02:02 10° 158° (SSE) 2,187 6.8 -16.8°
Maximum altitude 18:06:47 75° 74° (ENE) 731 4.2 -17.6°
Drops below altitude 10° 18:11:31 10° 349° (NNW) 2,171 6.8 -18.4°
Sets 18:13:46 0° 348° (NNW) 3,093 7.6 -18.8°
